Year,Month,Day,Hour,Minute,Value (Times are PST for temperature in C)
2019,03,21,00,00,10.00
2019,03,21,00,01,10.00
2019,03,21,00,02,10.10
2019,03,21,00,03,10.10
2019,03,21,00,04,10.20
2019,03,21,00,05,10.20
2019,03,21,00,06,10.30
2019,03,21,00,07,10.30
2019,03,21,00,08,10.30
2019,03,21,00,09,10.40
2019,03,21,00,10,10.40
2019,03,21,00,11,10.40
2019,03,21,00,12,10.40
2019,03,21,00,13,10.40
2019,03,21,00,14,10.40
2019,03,21,00,15,10.40
2019,03,21,00,16,10.30
2019,03,21,00,17,10.40
2019,03,21,00,18,10.40
2019,03,21,00,19,10.40
2019,03,21,00,20,10.40
2019,03,21,00,21,10.40
2019,03,21,00,22,10.40
2019,03,21,00,23,10.40
2019,03,21,00,24,10.30
2019,03,21,00,25,10.30
2019,03,21,00,26,10.30
2019,03,21,00,27,10.20
2019,03,21,00,28,10.20
2019,03,21,00,29,10.20
2019,03,21,00,30,10.10
2019,03,21,00,31,10.10
2019,03,21,00,32,10.00
2019,03,21,00,33,9.90
2019,03,21,00,34,9.90
2019,03,21,00,35,9.80
2019,03,21,00,36,9.80
2019,03,21,00,37,9.70
2019,03,21,00,38,9.60
2019,03,21,00,39,9.60
2019,03,21,00,40,9.50
2019,03,21,00,41,9.40
2019,03,21,00,42,9.40
2019,03,21,00,43,9.30
2019,03,21,00,44,9.30
2019,03,21,00,45,9.20
2019,03,21,00,46,9.20
2019,03,21,00,47,9.20
2019,03,21,00,48,9.10
2019,03,21,00,49,9.10
2019,03,21,00,50,9.10
2019,03,21,00,51,9.00
2019,03,21,00,52,8.90
2019,03,21,00,53,8.90
2019,03,21,00,54,8.90
2019,03,21,00,55,8.80
2019,03,21,00,56,8.80
2019,03,21,00,57,8.80
2019,03,21,00,58,8.80
2019,03,21,00,59,8.70
2019,03,21,01,00,8.70
2019,03,21,01,01,8.70
2019,03,21,01,02,8.70
2019,03,21,01,03,8.70
2019,03,21,01,04,8.70
2019,03,21,01,05,8.70
2019,03,21,01,06,8.70
2019,03,21,01,07,8.70
2019,03,21,01,08,8.70
2019,03,21,01,09,8.70
2019,03,21,01,10,8.70
2019,03,21,01,11,8.70
2019,03,21,01,12,8.70
2019,03,21,01,13,8.70
2019,03,21,01,14,8.70
2019,03,21,01,15,8.70
2019,03,21,01,16,8.70
2019,03,21,01,17,8.70
2019,03,21,01,18,8.70
2019,03,21,01,19,8.70
2019,03,21,01,20,8.70
2019,03,21,01,21,8.70
2019,03,21,01,22,8.70
2019,03,21,01,23,8.70
2019,03,21,01,24,8.70
2019,03,21,01,25,8.60
2019,03,21,01,26,8.60
2019,03,21,01,27,8.50
2019,03,21,01,28,8.40
2019,03,21,01,29,8.40
2019,03,21,01,30,8.30
2019,03,21,01,31,8.30
2019,03,21,01,32,8.30
2019,03,21,01,33,8.40
2019,03,21,01,34,8.40
2019,03,21,01,35,8.50
2019,03,21,01,36,8.60
2019,03,21,01,37,8.70
2019,03,21,01,38,8.80
2019,03,21,01,39,8.90
2019,03,21,01,40,9.00
2019,03,21,01,41,9.10
2019,03,21,01,42,9.20
2019,03,21,01,43,9.20
2019,03,21,01,44,9.30
2019,03,21,01,45,9.30
2019,03,21,01,46,9.30
2019,03,21,01,47,9.30
2019,03,21,01,48,9.30
2019,03,21,01,49,9.30
2019,03,21,01,50,9.30
2019,03,21,01,51,9.40
2019,03,21,01,52,9.40
2019,03,21,01,53,9.40
2019,03,21,01,54,9.40
2019,03,21,01,55,9.40
2019,03,21,01,56,9.30
2019,03,21,01,57,9.30
2019,03,21,01,58,9.30
2019,03,21,01,59,9.30
2019,03,21,02,00,9.20
2019,03,21,02,01,9.20
2019,03,21,02,02,9.10
2019,03,21,02,03,9.10
2019,03,21,02,04,9.00
2019,03,21,02,05,8.90
2019,03,21,02,06,8.90
2019,03,21,02,07,8.80
2019,03,21,02,08,8.70
2019,03,21,02,09,8.60
2019,03,21,02,10,8.50
2019,03,21,02,11,8.40
2019,03,21,02,12,8.30
2019,03,21,02,13,8.20
2019,03,21,02,14,8.10
2019,03,21,02,15,8.00
2019,03,21,02,16,8.00
2019,03,21,02,17,7.90
2019,03,21,02,18,7.80
2019,03,21,02,19,7.70
2019,03,21,02,20,7.70
2019,03,21,02,21,7.70
2019,03,21,02,22,7.70
2019,03,21,02,23,7.60
2019,03,21,02,24,7.70
2019,03,21,02,25,7.70
2019,03,21,02,26,7.70
2019,03,21,02,27,7.80
2019,03,21,02,28,7.80
2019,03,21,02,29,7.80
2019,03,21,02,30,7.80
2019,03,21,02,31,7.80
2019,03,21,02,32,7.80
2019,03,21,02,33,7.80
2019,03,21,02,34,7.80
2019,03,21,02,35,7.80
2019,03,21,02,36,7.80
2019,03,21,02,37,7.80
2019,03,21,02,38,7.80
2019,03,21,02,39,7.80
2019,03,21,02,40,7.80
2019,03,21,02,41,7.90
2019,03,21,02,42,7.90
2019,03,21,02,43,7.80
2019,03,21,02,44,7.80
2019,03,21,02,45,7.80
2019,03,21,02,46,7.80
2019,03,21,02,47,7.80
2019,03,21,02,48,7.80
2019,03,21,02,49,7.90
2019,03,21,02,50,7.90
2019,03,21,02,51,7.90
2019,03,21,02,52,7.90
2019,03,21,02,53,7.90
2019,03,21,02,54,7.90
2019,03,21,02,55,7.90
2019,03,21,02,56,7.90
2019,03,21,02,57,7.90
2019,03,21,02,58,7.90
2019,03,21,02,59,7.90
2019,03,21,03,00,7.90
2019,03,21,03,01,8.00
2019,03,21,03,02,8.00
2019,03,21,03,03,8.00
2019,03,21,03,04,8.00
2019,03,21,03,05,8.00
2019,03,21,03,06,7.90
2019,03,21,03,07,7.90
2019,03,21,03,08,7.90
2019,03,21,03,09,7.90
2019,03,21,03,10,7.90
2019,03,21,03,11,7.90
2019,03,21,03,12,7.90
2019,03,21,03,13,7.90
2019,03,21,03,14,7.80
2019,03,21,03,15,7.80
2019,03,21,03,16,7.80
2019,03,21,03,17,7.80
2019,03,21,03,18,7.80
2019,03,21,03,19,7.90
2019,03,21,03,20,7.90
2019,03,21,03,21,7.80
2019,03,21,03,22,7.80
2019,03,21,03,23,7.80
2019,03,21,03,24,7.80
2019,03,21,03,25,7.70
2019,03,21,03,26,7.70
2019,03,21,03,27,7.60
2019,03,21,03,28,7.60
2019,03,21,03,29,7.60
2019,03,21,03,30,7.60
2019,03,21,03,31,7.50
2019,03,21,03,32,7.50
2019,03,21,03,33,7.50
2019,03,21,03,34,7.40
2019,03,21,03,35,7.30
2019,03,21,03,36,7.30
2019,03,21,03,37,7.20
2019,03,21,03,38,7.20
2019,03,21,03,39,7.20
2019,03,21,03,40,7.20
2019,03,21,03,41,7.20
2019,03,21,03,42,7.10
2019,03,21,03,43,7.10
2019,03,21,03,44,7.10
2019,03,21,03,45,7.00
2019,03,21,03,46,7.00
2019,03,21,03,47,6.90
2019,03,21,03,48,6.80
2019,03,21,03,49,6.70
2019,03,21,03,50,6.60
2019,03,21,03,51,6.50
2019,03,21,03,52,6.50
2019,03,21,03,53,6.40
2019,03,21,03,54,6.40
2019,03,21,03,55,6.40
2019,03,21,03,56,6.30
2019,03,21,03,57,6.30
2019,03,21,03,58,6.20
2019,03,21,03,59,6.10
2019,03,21,04,00,6.00
2019,03,21,04,01,6.00
2019,03,21,04,02,5.90
2019,03,21,04,03,5.90
2019,03,21,04,04,5.90
2019,03,21,04,05,5.90
2019,03,21,04,06,5.90
2019,03,21,04,07,5.90
2019,03,21,04,08,6.00
2019,03,21,04,09,6.00
2019,03,21,04,10,6.00
2019,03,21,04,11,6.10
2019,03,21,04,12,6.10
2019,03,21,04,13,6.10
2019,03,21,04,14,6.10
2019,03,21,04,15,6.10
2019,03,21,04,16,6.10
2019,03,21,04,17,6.10
2019,03,21,04,18,6.10
2019,03,21,04,19,6.20
2019,03,21,04,20,6.20
2019,03,21,04,21,6.20
2019,03,21,04,22,6.30
2019,03,21,04,23,6.40
2019,03,21,04,24,6.50
2019,03,21,04,25,6.50
2019,03,21,04,26,6.60
2019,03,21,04,27,6.60
2019,03,21,04,28,6.60
2019,03,21,04,29,6.60
2019,03,21,04,30,6.60
2019,03,21,04,31,6.70
2019,03,21,04,32,6.70
2019,03,21,04,33,6.60
2019,03,21,04,34,6.60
2019,03,21,04,35,6.60
2019,03,21,04,36,6.60
2019,03,21,04,37,6.60
2019,03,21,04,38,6.60
2019,03,21,04,39,6.60
2019,03,21,04,40,6.50
2019,03,21,04,41,6.50
2019,03,21,04,42,6.50
2019,03,21,04,43,6.40
2019,03,21,04,44,6.40
2019,03,21,04,45,6.40
2019,03,21,04,46,6.40
2019,03,21,04,47,6.40
2019,03,21,04,48,6.30
2019,03,21,04,49,6.30
2019,03,21,04,50,6.40
2019,03,21,04,51,6.40
2019,03,21,04,52,6.30
2019,03,21,04,53,6.30
2019,03,21,04,54,6.20
2019,03,21,04,55,6.20
2019,03,21,04,56,6.30
2019,03,21,04,57,6.30
2019,03,21,04,58,6.30
2019,03,21,04,59,6.30
2019,03,21,05,00,6.30
2019,03,21,05,01,6.30
2019,03,21,05,02,6.30
2019,03,21,05,03,6.20
2019,03,21,05,04,6.20
2019,03,21,05,05,6.20
2019,03,21,05,06,6.10
2019,03,21,05,07,6.10
2019,03,21,05,08,6.10
2019,03,21,05,09,6.10
2019,03,21,05,10,6.10
2019,03,21,05,11,6.10
2019,03,21,05,12,6.10
2019,03,21,05,13,6.10
2019,03,21,05,14,6.20
2019,03,21,05,15,6.20
2019,03,21,05,16,6.20
2019,03,21,05,17,6.20
2019,03,21,05,18,6.20
2019,03,21,05,19,6.30
2019,03,21,05,20,6.30
2019,03,21,05,21,6.40
2019,03,21,05,22,6.40
2019,03,21,05,23,6.40
2019,03,21,05,24,6.40
2019,03,21,05,25,6.40
2019,03,21,05,26,6.40
2019,03,21,05,27,6.40
2019,03,21,05,28,6.30
2019,03,21,05,29,6.30
2019,03,21,05,30,6.20
2019,03,21,05,31,6.10
2019,03,21,05,32,6.00
2019,03,21,05,33,6.00
2019,03,21,05,34,5.90
2019,03,21,05,35,5.90
2019,03,21,05,36,6.00
2019,03,21,05,37,6.00
2019,03,21,05,38,6.10
2019,03,21,05,39,6.10
2019,03,21,05,40,6.10
2019,03,21,05,41,6.10
2019,03,21,05,42,6.10
2019,03,21,05,43,6.00
2019,03,21,05,44,6.00
2019,03,21,05,45,6.00
2019,03,21,05,46,5.90
2019,03,21,05,47,5.90
2019,03,21,05,48,5.80
2019,03,21,05,49,5.80
2019,03,21,05,50,5.80
2019,03,21,05,51,5.80
2019,03,21,05,52,5.80
2019,03,21,05,53,5.80
2019,03,21,05,54,5.90
2019,03,21,05,55,5.90
2019,03,21,05,56,5.90
2019,03,21,05,57,5.90
2019,03,21,05,58,5.90
2019,03,21,05,59,5.90
2019,03,21,06,00,6.00
2019,03,21,06,01,6.00
2019,03,21,06,02,5.90
2019,03,21,06,03,5.90
2019,03,21,06,04,5.90
2019,03,21,06,05,5.90
2019,03,21,06,06,5.90
2019,03,21,06,07,6.00
2019,03,21,06,08,6.00
2019,03,21,06,09,6.00
2019,03,21,06,10,5.90
2019,03,21,06,11,5.90
2019,03,21,06,12,5.80
2019,03,21,06,13,5.80
2019,03,21,06,14,5.70
2019,03,21,06,15,5.70
2019,03,21,06,16,5.60
2019,03,21,06,17,5.60
2019,03,21,06,18,5.50
2019,03,21,06,19,5.50
2019,03,21,06,20,5.50
2019,03,21,06,21,5.40
2019,03,21,06,22,5.40
2019,03,21,06,23,5.40
2019,03,21,06,24,5.40
2019,03,21,06,25,5.40
2019,03,21,06,26,5.30
2019,03,21,06,27,5.30
2019,03,21,06,28,5.30
2019,03,21,06,29,5.30
2019,03,21,06,30,5.20
2019,03,21,06,31,5.20
2019,03,21,06,32,5.20
2019,03,21,06,33,5.30
2019,03,21,06,34,5.20
2019,03,21,06,35,5.20
2019,03,21,06,36,5.20
2019,03,21,06,37,5.20
2019,03,21,06,38,5.30
2019,03,21,06,39,5.30
2019,03,21,06,40,5.30
2019,03,21,06,41,5.30
2019,03,21,06,42,5.30
2019,03,21,06,43,5.30
2019,03,21,06,44,5.30
2019,03,21,06,45,5.40
2019,03,21,06,46,5.40
2019,03,21,06,47,5.40
2019,03,21,06,48,5.50
2019,03,21,06,49,5.50
2019,03,21,06,50,5.50
2019,03,21,06,51,5.60
2019,03,21,06,52,5.60
2019,03,21,06,53,5.60
2019,03,21,06,54,5.60
2019,03,21,06,55,5.60
2019,03,21,06,56,5.60
2019,03,21,06,57,5.60
2019,03,21,06,58,5.70
2019,03,21,06,59,5.70
2019,03,21,07,00,5.60
2019,03,21,07,01,5.60
2019,03,21,07,02,5.60
2019,03,21,07,03,5.60
2019,03,21,07,04,5.50
2019,03,21,07,05,5.50
2019,03,21,07,06,5.50
2019,03,21,07,07,5.50
2019,03,21,07,08,5.50
2019,03,21,07,09,5.40
2019,03,21,07,10,5.40
2019,03,21,07,11,5.40
2019,03,21,07,12,5.40
2019,03,21,07,13,5.40
2019,03,21,07,14,5.40
2019,03,21,07,15,5.30
2019,03,21,07,16,5.30
2019,03,21,07,17,5.40
2019,03,21,07,18,5.40
2019,03,21,07,19,5.40
2019,03,21,07,20,5.40
2019,03,21,07,21,5.40
2019,03,21,07,22,5.40
2019,03,21,07,23,5.50
2019,03,21,07,24,5.50
2019,03,21,07,25,5.50
2019,03,21,07,26,5.60
2019,03,21,07,27,5.60
2019,03,21,07,28,5.60
2019,03,21,07,29,5.60
2019,03,21,07,30,5.60
2019,03,21,07,31,5.60
2019,03,21,07,32,5.60
2019,03,21,07,33,5.70
2019,03,21,07,34,5.70
2019,03,21,07,35,5.70
2019,03,21,07,36,5.70
2019,03,21,07,37,5.70
2019,03,21,07,38,5.70
2019,03,21,07,39,5.70
2019,03,21,07,40,5.70
2019,03,21,07,41,5.70
2019,03,21,07,42,5.70
2019,03,21,07,43,5.70
2019,03,21,07,44,5.70
2019,03,21,07,45,5.70
2019,03,21,07,46,5.70
2019,03,21,07,47,5.70
2019,03,21,07,48,5.60
2019,03,21,07,49,5.60
2019,03,21,07,50,5.60
2019,03,21,07,51,5.60
2019,03,21,07,52,5.50
2019,03,21,07,53,5.50
2019,03,21,07,54,5.40
2019,03,21,07,55,5.40
2019,03,21,07,56,5.30
2019,03,21,07,57,5.30
2019,03,21,07,58,5.30
2019,03,21,07,59,5.30
2019,03,21,08,00,5.30
2019,03,21,08,01,5.30
2019,03,21,08,02,5.30
2019,03,21,08,03,5.30
2019,03,21,08,04,5.30
2019,03,21,08,05,5.30
2019,03,21,08,06,5.30
2019,03,21,08,07,5.30
2019,03,21,08,08,5.30
2019,03,21,08,09,5.30
2019,03,21,08,10,5.30
2019,03,21,08,11,5.30
2019,03,21,08,12,5.40
2019,03,21,08,13,5.40
2019,03,21,08,14,5.40
2019,03,21,08,15,5.50
2019,03,21,08,16,5.50
2019,03,21,08,17,5.60
2019,03,21,08,18,5.60
2019,03,21,08,19,5.70
2019,03,21,08,20,5.70
2019,03,21,08,21,5.70
2019,03,21,08,22,5.70
2019,03,21,08,23,5.70
2019,03,21,08,24,5.70
2019,03,21,08,25,5.70
2019,03,21,08,26,5.70
2019,03,21,08,27,5.70
2019,03,21,08,28,5.70
2019,03,21,08,29,5.70
2019,03,21,08,30,5.80
2019,03,21,08,31,5.90
2019,03,21,08,32,5.90
2019,03,21,08,33,6.00
2019,03,21,08,34,6.10
2019,03,21,08,35,6.20
2019,03,21,08,36,6.20
2019,03,21,08,37,6.30
2019,03,21,08,38,6.30
2019,03,21,08,39,6.30
2019,03,21,08,40,6.40
2019,03,21,08,41,6.40
2019,03,21,08,42,6.40
2019,03,21,08,43,6.40
2019,03,21,08,44,6.50
2019,03,21,08,45,6.60
2019,03,21,08,46,6.60
2019,03,21,08,47,6.70
2019,03,21,08,48,6.80
2019,03,21,08,49,6.90
2019,03,21,08,50,7.00
2019,03,21,08,51,7.10
2019,03,21,08,52,7.20
2019,03,21,08,53,7.20
2019,03,21,08,54,7.30
2019,03,21,08,55,7.30
2019,03,21,08,56,7.40
2019,03,21,08,57,7.40
2019,03,21,08,58,7.50
2019,03,21,08,59,7.60
2019,03,21,09,00,7.60
2019,03,21,09,01,7.70
2019,03,21,09,02,7.80
2019,03,21,09,03,7.80
2019,03,21,09,04,7.80
2019,03,21,09,05,7.90
2019,03,21,09,06,7.90
2019,03,21,09,07,8.00
2019,03,21,09,08,8.00
2019,03,21,09,09,8.10
2019,03,21,09,10,8.10
2019,03,21,09,11,8.10
2019,03,21,09,12,8.10
2019,03,21,09,13,8.10
2019,03,21,09,14,8.10
2019,03,21,09,15,8.20
2019,03,21,09,16,8.10
2019,03,21,09,17,8.10
2019,03,21,09,18,8.10
2019,03,21,09,19,8.10
2019,03,21,09,20,8.10
2019,03,21,09,21,8.10
2019,03,21,09,22,8.00
2019,03,21,09,23,8.00
2019,03,21,09,24,8.00
2019,03,21,09,25,8.00
2019,03,21,09,26,7.90
2019,03,21,09,27,7.90
2019,03,21,09,28,7.90
2019,03,21,09,29,7.90
2019,03,21,09,30,7.90
2019,03,21,09,31,7.90
2019,03,21,09,32,7.90
2019,03,21,09,33,7.90
2019,03,21,09,34,8.00
2019,03,21,09,35,8.00
2019,03,21,09,36,8.00
2019,03,21,09,37,8.00
2019,03,21,09,38,8.00
2019,03,21,09,39,8.10
2019,03,21,09,40,8.10
2019,03,21,09,41,8.10
2019,03,21,09,42,8.10
2019,03,21,09,43,8.10
2019,03,21,09,44,8.10
2019,03,21,09,45,8.20
2019,03,21,09,46,8.20
2019,03,21,09,47,8.20
2019,03,21,09,48,8.20
2019,03,21,09,49,8.30
2019,03,21,09,50,8.30
2019,03,21,09,51,8.30
2019,03,21,09,52,8.40
2019,03,21,09,53,8.40
2019,03,21,09,54,8.40
2019,03,21,09,55,8.50
2019,03,21,09,56,8.60
2019,03,21,09,57,8.60
2019,03,21,09,58,8.70
2019,03,21,09,59,8.70
2019,03,21,10,00,8.80
2019,03,21,10,01,8.80
2019,03,21,10,02,8.90
2019,03,21,10,03,8.90
2019,03,21,10,04,9.00
2019,03,21,10,05,9.10
2019,03,21,10,06,9.20
2019,03,21,10,07,9.30
2019,03,21,10,08,9.30
2019,03,21,10,09,9.40
2019,03,21,10,10,9.40
2019,03,21,10,11,9.50
2019,03,21,10,12,9.60
2019,03,21,10,13,9.70
2019,03,21,10,14,9.80
2019,03,21,10,15,9.80
2019,03,21,10,16,9.90
2019,03,21,10,17,10.00
2019,03,21,10,18,10.00
2019,03,21,10,19,10.10
2019,03,21,10,20,10.10
2019,03,21,10,21,10.10
2019,03,21,10,22,10.20
2019,03,21,10,23,10.20
2019,03,21,10,24,10.20
2019,03,21,10,25,10.20
2019,03,21,10,26,10.30
2019,03,21,10,27,10.30
2019,03,21,10,28,10.30
2019,03,21,10,29,10.30
2019,03,21,10,30,10.30
2019,03,21,10,31,10.40
2019,03,21,10,32,10.40
2019,03,21,10,33,10.50
2019,03,21,10,34,10.60
2019,03,21,10,35,10.70
2019,03,21,10,36,10.80
2019,03,21,10,37,10.90
2019,03,21,10,38,11.00
2019,03,21,10,39,11.10
2019,03,21,10,40,11.10
2019,03,21,10,41,11.20
2019,03,21,10,42,11.20
2019,03,21,10,43,11.20
2019,03,21,10,44,11.30
2019,03,21,10,45,11.30
2019,03,21,10,46,11.40
2019,03,21,10,47,11.50
2019,03,21,10,48,11.50
2019,03,21,10,49,11.60
2019,03,21,10,50,11.70
2019,03,21,10,51,11.70
2019,03,21,10,52,11.80
2019,03,21,10,53,11.90
2019,03,21,10,54,12.00
2019,03,21,10,55,12.10
2019,03,21,10,56,12.10
2019,03,21,10,57,12.20
2019,03,21,10,58,12.20
2019,03,21,10,59,12.30
2019,03,21,11,00,12.30
2019,03,21,11,01,12.20
2019,03,21,11,02,12.20
2019,03,21,11,03,12.20
2019,03,21,11,04,12.30
2019,03,21,11,05,12.30
2019,03,21,11,06,12.30
2019,03,21,11,07,12.40
2019,03,21,11,08,12.40
2019,03,21,11,09,12.50
2019,03,21,11,10,12.50
2019,03,21,11,11,12.50
2019,03,21,11,12,12.50
2019,03,21,11,13,12.50
2019,03,21,11,14,12.60
2019,03,21,11,15,12.60
2019,03,21,11,16,12.60
2019,03,21,11,17,12.60
2019,03,21,11,18,12.60
2019,03,21,11,19,12.60
2019,03,21,11,20,12.60
2019,03,21,11,21,12.60
2019,03,21,11,22,12.70
2019,03,21,11,23,12.70
2019,03,21,11,24,12.70
2019,03,21,11,25,12.70
2019,03,21,11,26,12.80
2019,03,21,11,27,12.90
2019,03,21,11,28,12.90
2019,03,21,11,29,12.90
2019,03,21,11,30,13.00
2019,03,21,11,31,13.10
2019,03,21,11,32,13.10
2019,03,21,11,33,13.10
2019,03,21,11,34,13.10
2019,03,21,11,35,13.20
2019,03,21,11,36,13.20
2019,03,21,11,37,13.20
2019,03,21,11,38,13.20
2019,03,21,11,39,13.10
2019,03,21,11,40,13.10
2019,03,21,11,41,13.00
2019,03,21,11,42,13.00
2019,03,21,11,43,12.90
2019,03,21,11,44,12.80
2019,03,21,11,45,12.80
2019,03,21,11,46,12.80
2019,03,21,11,47,12.80
2019,03,21,11,48,12.80
2019,03,21,11,49,12.80
2019,03,21,11,50,12.80
2019,03,21,11,51,12.80
2019,03,21,11,52,12.80
2019,03,21,11,53,12.80
2019,03,21,11,54,12.80
2019,03,21,11,55,12.70
2019,03,21,11,56,12.60
2019,03,21,11,57,12.50
2019,03,21,11,58,12.50
2019,03,21,11,59,12.50
2019,03,21,12,00,12.50
2019,03,21,12,01,12.50
2019,03,21,12,02,12.60
2019,03,21,12,03,12.60
2019,03,21,12,04,12.70
2019,03,21,12,05,12.80
2019,03,21,12,06,12.80
2019,03,21,12,07,12.80
2019,03,21,12,08,12.90
2019,03,21,12,09,12.90
2019,03,21,12,10,12.90
2019,03,21,12,11,12.90
2019,03,21,12,12,12.90
2019,03,21,12,13,13.00
2019,03,21,12,14,13.10
2019,03,21,12,15,13.20
2019,03,21,12,16,13.20
2019,03,21,12,17,13.20
2019,03,21,12,18,13.20
2019,03,21,12,19,13.20
2019,03,21,12,20,13.30
2019,03,21,12,21,13.30
2019,03,21,12,22,13.30
2019,03,21,12,23,13.30
2019,03,21,12,24,13.30
2019,03,21,12,25,13.30
2019,03,21,12,26,13.30
2019,03,21,12,27,13.30
2019,03,21,12,28,13.30
2019,03,21,12,29,13.30
2019,03,21,12,30,13.30
2019,03,21,12,31,13.30
2019,03,21,12,32,13.30
2019,03,21,12,33,13.30
2019,03,21,12,34,13.30
2019,03,21,12,35,13.30
2019,03,21,12,36,13.30
2019,03,21,12,37,13.30
2019,03,21,12,38,13.30
2019,03,21,12,39,13.30
2019,03,21,12,40,13.30
2019,03,21,12,41,13.40
2019,03,21,12,42,13.40
2019,03,21,12,43,13.40
2019,03,21,12,44,13.40
2019,03,21,12,45,13.40
2019,03,21,12,46,13.40
2019,03,21,12,47,13.30
2019,03,21,12,48,13.30
2019,03,21,12,49,13.30
2019,03,21,12,50,13.40
2019,03,21,12,51,13.40
2019,03,21,12,52,13.40
2019,03,21,12,53,13.40
2019,03,21,12,54,13.40
2019,03,21,12,55,13.40
2019,03,21,12,56,13.40
2019,03,21,12,57,13.40
2019,03,21,12,58,13.50
2019,03,21,12,59,13.50
2019,03,21,13,00,13.60
2019,03,21,13,01,13.60
2019,03,21,13,02,13.50
2019,03,21,13,03,13.50
2019,03,21,13,04,13.40
2019,03,21,13,05,13.40
2019,03,21,13,06,13.30
2019,03,21,13,07,13.30
2019,03,21,13,08,13.30
2019,03,21,13,09,13.40
2019,03,21,13,10,13.40
2019,03,21,13,11,13.40
2019,03,21,13,12,13.50
2019,03,21,13,13,13.60
2019,03,21,13,14,13.60
2019,03,21,13,15,13.70
2019,03,21,13,16,13.70
2019,03,21,13,17,13.80
2019,03,21,13,18,13.80
2019,03,21,13,19,13.80
2019,03,21,13,20,13.90
2019,03,21,13,21,14.00
2019,03,21,13,22,14.10
2019,03,21,13,23,14.10
2019,03,21,13,24,14.10
2019,03,21,13,25,14.20
2019,03,21,13,26,14.20
2019,03,21,13,27,14.30
2019,03,21,13,28,14.30
2019,03,21,13,29,14.30
2019,03,21,13,30,14.40
2019,03,21,13,31,14.50
2019,03,21,13,32,14.60
2019,03,21,13,33,14.60
2019,03,21,13,34,14.70
2019,03,21,13,35,14.70
2019,03,21,13,36,14.70
2019,03,21,13,37,14.80
2019,03,21,13,38,14.80
2019,03,21,13,39,14.90
2019,03,21,13,40,14.90
2019,03,21,13,41,15.00
2019,03,21,13,42,15.00
2019,03,21,13,43,15.10
2019,03,21,13,44,15.00
2019,03,21,13,45,15.00
2019,03,21,13,46,15.00
2019,03,21,13,47,14.90
2019,03,21,13,48,14.90
2019,03,21,13,49,14.90
2019,03,21,13,50,14.90
2019,03,21,13,51,14.80
2019,03,21,13,52,14.80
2019,03,21,13,53,14.80
2019,03,21,13,54,14.90
2019,03,21,13,55,14.90
2019,03,21,13,56,14.90
2019,03,21,13,57,14.90
2019,03,21,13,58,14.90
2019,03,21,13,59,14.90
2019,03,21,14,00,14.80
2019,03,21,14,01,14.90
2019,03,21,14,02,14.90
2019,03,21,14,03,14.90
2019,03,21,14,04,14.90
2019,03,21,14,05,14.90
2019,03,21,14,06,14.80
2019,03,21,14,07,14.70
2019,03,21,14,08,14.60
2019,03,21,14,09,14.50
2019,03,21,14,10,14.50
2019,03,21,14,11,14.40
2019,03,21,14,12,14.50
2019,03,21,14,13,14.50
2019,03,21,14,14,14.50
2019,03,21,14,15,14.50
2019,03,21,14,16,14.40
2019,03,21,14,17,14.40
2019,03,21,14,18,14.30
2019,03,21,14,19,14.30
2019,03,21,14,20,14.30
2019,03,21,14,21,14.30
2019,03,21,14,22,14.30
2019,03,21,14,23,14.30
2019,03,21,14,24,14.40
2019,03,21,14,25,14.40
2019,03,21,14,26,14.40
2019,03,21,14,27,14.30
2019,03,21,14,28,14.30
2019,03,21,14,29,14.20
2019,03,21,14,30,14.20
2019,03,21,14,31,14.20
2019,03,21,14,32,14.20
2019,03,21,14,33,14.20
2019,03,21,14,34,14.20
2019,03,21,14,35,14.20
2019,03,21,14,36,14.20
2019,03,21,14,37,14.30
2019,03,21,14,38,14.30
2019,03,21,14,39,14.40
2019,03,21,14,40,14.50
2019,03,21,14,41,14.60
2019,03,21,14,42,14.60
2019,03,21,14,43,14.70
2019,03,21,14,44,14.70
2019,03,21,14,45,14.80
2019,03,21,14,46,14.80
2019,03,21,14,47,14.80
2019,03,21,14,48,14.80
2019,03,21,14,49,14.80
2019,03,21,14,50,14.80
2019,03,21,14,51,14.70
2019,03,21,14,52,14.70
2019,03,21,14,53,14.70
2019,03,21,14,54,14.60
2019,03,21,14,55,14.60
2019,03,21,14,56,14.60
2019,03,21,14,57,14.60
2019,03,21,14,58,14.50
2019,03,21,14,59,14.50
2019,03,21,15,00,14.50
2019,03,21,15,01,14.50
2019,03,21,15,02,14.50
2019,03,21,15,03,14.50
2019,03,21,15,04,14.60
2019,03,21,15,05,14.60
2019,03,21,15,06,14.60
2019,03,21,15,07,14.60
2019,03,21,15,08,14.60
2019,03,21,15,09,14.70
2019,03,21,15,10,14.70
2019,03,21,15,11,14.80
2019,03,21,15,12,14.80
2019,03,21,15,13,14.80
2019,03,21,15,14,14.80
2019,03,21,15,15,14.80
2019,03,21,15,16,14.70
2019,03,21,15,17,14.60
2019,03,21,15,18,14.60
2019,03,21,15,19,14.60
2019,03,21,15,20,14.50
2019,03,21,15,21,14.40
2019,03,21,15,22,14.40
2019,03,21,15,23,14.30
2019,03,21,15,24,14.30
2019,03,21,15,25,14.30
2019,03,21,15,26,14.30
2019,03,21,15,27,14.30
2019,03,21,15,28,14.30
2019,03,21,15,29,14.40
2019,03,21,15,30,14.40
2019,03,21,15,31,14.50
2019,03,21,15,32,14.60
2019,03,21,15,33,14.60
2019,03,21,15,34,14.50
2019,03,21,15,35,14.50
2019,03,21,15,36,14.40
2019,03,21,15,37,14.40
2019,03,21,15,38,14.40
2019,03,21,15,39,14.30
2019,03,21,15,40,14.30
2019,03,21,15,41,14.20
2019,03,21,15,42,14.20
2019,03,21,15,43,14.10
2019,03,21,15,44,14.00
2019,03,21,15,45,13.90
2019,03,21,15,46,13.80
2019,03,21,15,47,13.80
2019,03,21,15,48,13.80
2019,03,21,15,49,13.70
2019,03,21,15,50,13.70
2019,03,21,15,51,13.80
2019,03,21,15,52,13.80
2019,03,21,15,53,13.80
2019,03,21,15,54,13.80
2019,03,21,15,55,13.80
2019,03,21,15,56,13.90
2019,03,21,15,57,13.90
2019,03,21,15,58,14.00
2019,03,21,15,59,14.00
2019,03,21,16,00,14.00
2019,03,21,16,01,14.10
2019,03,21,16,02,14.00
2019,03,21,16,03,14.00
2019,03,21,16,04,14.00
2019,03,21,16,05,14.00
2019,03,21,16,06,14.00
2019,03,21,16,07,14.10
2019,03,21,16,08,14.10
2019,03,21,16,09,14.10
2019,03,21,16,10,14.20
2019,03,21,16,11,14.20
2019,03,21,16,12,14.30
2019,03,21,16,13,14.20
2019,03,21,16,14,14.30
2019,03,21,16,15,14.30
2019,03,21,16,16,14.30
2019,03,21,16,17,14.30
2019,03,21,16,18,14.40
2019,03,21,16,19,14.50
2019,03,21,16,20,14.50
2019,03,21,16,21,14.60
2019,03,21,16,22,14.60
2019,03,21,16,23,14.60
2019,03,21,16,24,14.60
2019,03,21,16,25,14.60
2019,03,21,16,26,14.50
2019,03,21,16,27,14.50
2019,03,21,16,28,14.40
2019,03,21,16,29,14.40
2019,03,21,16,30,14.30
2019,03,21,16,31,14.20
2019,03,21,16,32,14.10
2019,03,21,16,33,14.00
2019,03,21,16,34,13.90
2019,03,21,16,35,13.80
2019,03,21,16,36,13.80
2019,03,21,16,37,13.70
2019,03,21,16,38,13.60
2019,03,21,16,39,13.60
2019,03,21,16,40,13.60
2019,03,21,16,41,13.60
2019,03,21,16,42,13.60
2019,03,21,16,43,13.60
2019,03,21,16,44,13.60
2019,03,21,16,45,13.60
2019,03,21,16,46,13.60
2019,03,21,16,47,13.60
2019,03,21,16,48,13.70
2019,03,21,16,49,13.70
2019,03,21,16,50,13.70
2019,03,21,16,51,13.80
2019,03,21,16,52,13.80
2019,03,21,16,53,13.80
2019,03,21,16,54,13.90
2019,03,21,16,55,13.90
2019,03,21,16,56,13.90
2019,03,21,16,57,14.00
2019,03,21,16,58,14.00
2019,03,21,16,59,14.00
2019,03,21,17,00,14.00
2019,03,21,17,01,14.00
2019,03,21,17,02,14.00
2019,03,21,17,03,14.00
2019,03,21,17,04,14.00
2019,03,21,17,05,14.10
2019,03,21,17,06,14.10
2019,03,21,17,07,14.10
2019,03,21,17,08,14.20
2019,03,21,17,09,14.20
2019,03,21,17,10,14.30
2019,03,21,17,11,14.30
2019,03,21,17,12,14.20
2019,03,21,17,13,14.20
2019,03,21,17,14,14.20
2019,03,21,17,15,14.20
2019,03,21,17,16,14.20
2019,03,21,17,17,14.20
2019,03,21,17,18,14.20
2019,03,21,17,19,14.30
2019,03,21,17,20,14.30
2019,03,21,17,21,14.20
2019,03,21,17,22,14.20
2019,03,21,17,23,14.20
2019,03,21,17,24,14.10
2019,03,21,17,25,14.10
2019,03,21,17,26,14.10
2019,03,21,17,27,14.10
2019,03,21,17,28,14.10
2019,03,21,17,29,14.00
2019,03,21,17,30,14.00
2019,03,21,17,31,14.00
2019,03,21,17,32,14.00
2019,03,21,17,33,14.00
2019,03,21,17,34,13.90
2019,03,21,17,35,13.90
2019,03,21,17,36,13.90
2019,03,21,17,37,13.90
2019,03,21,17,38,13.80
2019,03,21,17,39,13.80
2019,03,21,17,40,13.80
2019,03,21,17,41,13.80
2019,03,21,17,42,13.80
2019,03,21,17,43,13.80
2019,03,21,17,44,13.80